This is the latest recevied weather packets stored in our database for station/object EA3RCF. If no packets are shown the sender has not sent any weather packets the latest 10 day(s).
| Time | Temp. | Humidity | Pressure | Rain* | Wind** | Luminosity | Snow |
|---|---|---|---|---|---|---|---|
| 1777898616 | 20° C | 72% | 1011 hPa | 0 mm | - | - | - |
| 1777898296 | 20° C | 71% | 1011.1 hPa | 0 mm | - | - | - |
| 1777897994 | 20° C | 70% | 1011.2 hPa | 0 mm | - | - | - |
| 1777897701 | 20.56° C | 68% | 1011.3 hPa | 0 mm | - | - | - |
| 1777897410 | 21.11° C | 65% | 1011.2 hPa | 0 mm | - | - | - |
| 1777897119 | 21.67° C | 61% | 1011.2 hPa | 0 mm | - | - | - |
| 1777896802 | 21.67° C | 61% | 1011.2 hPa | 0 mm | - | - | - |
| 1777896505 | 22.22° C | 63% | 1011.3 hPa | 0 mm | - | - | - |
| 1777896214 | 22.22° C | 63% | 1011.4 hPa | 0 mm | - | - | - |
| 1777895895 | 22.22° C | 59% | 1011.4 hPa | 0 mm | - | - | - |
| 1777895598 | 22.22° C | 60% | 1011.5 hPa | 0 mm | - | - | - |
| 1777895305 | 22.22° C | 58% | 1011.5 hPa | 0 mm | - | - | - |
| 1777895008 | 22.22° C | 58% | 1011.7 hPa | 0 mm | - | - | - |
| 1777894716 | 22.22° C | 59% | 1011.8 hPa | 0 mm | - | - | - |
| 1777894399 | 22.22° C | 59% | 1011.8 hPa | 0 mm | - | - | - |
| 1777894101 | 22.22° C | 60% | 1011.9 hPa | 0 mm | - | - | - |
| 1777893810 | 21.67° C | 60% | 1012 hPa | 0 mm | - | - | - |
| 1777893510 | 21.67° C | 61% | 1012.1 hPa | 0 mm | - | - | - |
| 1777893218 | 21.67° C | 60% | 1012.2 hPa | 0 mm | - | - | - |
| 1777892898 | 21.11° C | 59% | 1012.2 hPa | 0 mm | - | - | - |
| 1777892600 | 20.56° C | 62% | 1012.3 hPa | 0 mm | - | - | - |
| 1777892310 | 20° C | 61% | 1012.3 hPa | 0 mm | - | - | - |
| 1777891996 | 20° C | 60% | 1012.3 hPa | 0 mm | - | - | - |
| 1777891697 | 20.56° C | 59% | 1012.4 hPa | 0 mm | - | - | - |
| 1777891403 | 20.56° C | 59% | 1012.4 hPa | 0 mm | - | - | - |
* Rain latest hour (hover to see other rain measurements)
** Current wind speed in m/s (hover to see current wind gust speed)